Weather History for Marshfield, MA

Change the Weather History Date:

Sunday, March 3, 2013

  Actual Average (KPYM) Record (KPYM)
Temperature  
Mean Temperature 38 °F -  
Max Temperature 42 °F 42 °F 61 °F (1973)
Min Temperature 33 °F 25 °F 5 °F (1950)
Degree Days  
Heating Degree Days 28    
Moisture  
Dew Point 31 °F    
Average Humidity 77    
Maximum Humidity 93    
Minimum Humidity 61    
Precipitation  
Precipitation 0.00 in - - ()
Sea Level Pressure  
Sea Level Pressure 29.61 in    
Wind  
Wind Speed 4 mph (WNW)    
Max Wind Speed 9 mph    
Max Gust Speed -    
Visibility 10 miles    
Events Rain , Snow    
Averages and records for this station are not official NWS values.
T = Trace of Precipitation, MM = Missing Value Source: NWS Daily Summary

Daily Weather History Graph

Daily Weather History Graph

Search for Another Location

Airport:

Trip Planner

Search our weather history database for the weather conditions in past years. The results will help you decide how hot, cold, wet, or windy it might be!

Date:

Astronomy

Mar. 03, 2013 Rise Set
Actual Time 6:14 AM EST 5:35 PM EST
Civil Twilight 5:46 AM EST 6:03 PM EST
Nautical Twilight 5:13 AM EST 6:35 PM EST
Astronomical Twilight 4:41 AM EST 7:08 PM EST
Moon No Moon Rise 9:19 AM EST (3/3)
Length of Visible Light 12h 17m
Length of Day
11h 21m
Waning Gibbous, 64% of the Moon is Illuminated
Mar 3
Waning Gibbous
Mar 4
Last Quarter
Mar 11
New
Mar 19
First Quarter
Mar 27
Full

Hourly Weather History & Observations

Time (EST) Temp. Windchill Dew Point Humidity Pressure Visibility Wind Dir Wind Speed Gust Speed Precip Events Conditions
12:15 AM 37.4 °F 34.9 °F 30.2 °F 75% 29.64 in 10.0 mi WNW 3.5 mph - N/A   Overcast
12:35 AM 37.4 °F 32.8 °F 30.2 °F 75% 29.65 in 10.0 mi WNW 5.8 mph - N/A   Overcast
12:55 AM 37.4 °F 33.8 °F 30.2 °F 75% 29.64 in 10.0 mi WNW 4.6 mph - N/A   Overcast
1:15 AM 37.4 °F - 30.2 °F 75% 29.65 in 10.0 mi Calm Calm - N/A   Overcast
1:35 AM 37.4 °F 34.9 °F 30.2 °F 75% 29.64 in 10.0 mi WNW 3.5 mph - N/A   Overcast
2:15 AM 35.6 °F - 28.4 °F 75% 29.63 in 10.0 mi Calm Calm - N/A   Overcast
2:35 AM 35.6 °F 32.8 °F 28.4 °F 75% 29.63 in 10.0 mi West 3.5 mph - N/A   Overcast
2:55 AM 35.6 °F 32.8 °F 28.4 °F 75% 29.63 in 10.0 mi WNW 3.5 mph - N/A   Overcast
3:15 AM 35.6 °F 31.7 °F 28.4 °F 75% 29.62 in 10.0 mi WNW 4.6 mph - N/A   Overcast
3:35 AM 35.6 °F - 28.4 °F 75% 29.63 in 10.0 mi Calm Calm - N/A   Overcast
3:55 AM 35.6 °F - 28.4 °F 75% 29.63 in 10.0 mi Calm Calm - N/A   Overcast
4:15 AM 35.6 °F 31.7 °F 28.4 °F 75% 29.62 in 10.0 mi WNW 4.6 mph - N/A   Overcast
4:35 AM 35.6 °F 31.7 °F 28.4 °F 75% 29.62 in 10.0 mi West 4.6 mph - N/A   Overcast
4:55 AM 35.6 °F 31.7 °F 28.4 °F 75% 29.63 in 10.0 mi West 4.6 mph - N/A   Overcast
5:15 AM 35.6 °F 32.8 °F 28.4 °F 75% 29.63 in 10.0 mi West 3.5 mph - N/A   Overcast
5:35 AM 35.6 °F - 28.4 °F 75% 29.63 in 10.0 mi Calm Calm - N/A   Overcast
5:55 AM 35.6 °F - 28.4 °F 75% 29.64 in 10.0 mi Calm Calm - N/A   Overcast
6:15 AM 35.6 °F 32.8 °F 28.4 °F 75% 29.64 in 10.0 mi West 3.5 mph - N/A   Overcast
6:35 AM 35.6 °F 32.8 °F 28.4 °F 75% 29.64 in 10.0 mi West 3.5 mph - N/A   Overcast
6:55 AM 35.6 °F - 28.4 °F 75% 29.64 in 10.0 mi Calm Calm - N/A   Overcast
7:15 AM 35.6 °F 32.8 °F 28.4 °F 75% 29.64 in 10.0 mi West 3.5 mph - N/A   Overcast
7:35 AM 35.6 °F 32.8 °F 28.4 °F 75% 29.64 in 10.0 mi WNW 3.5 mph - N/A   Overcast
7:55 AM 35.6 °F 29.9 °F 28.4 °F 75% 29.64 in 10.0 mi WNW 6.9 mph - N/A   Overcast
8:15 AM 35.6 °F 30.7 °F 28.4 °F 75% 29.64 in 10.0 mi WNW 5.8 mph - N/A   Overcast
8:35 AM 35.6 °F 32.8 °F 28.4 °F 75% 29.64 in 10.0 mi WNW 3.5 mph - N/A   Overcast
8:55 AM 35.6 °F 31.7 °F 28.4 °F 75% 29.63 in 10.0 mi West 4.6 mph - N/A   Mostly Cloudy
9:15 AM 37.4 °F 32.8 °F 28.4 °F 70% 29.63 in 10.0 mi WSW 5.8 mph - N/A   Mostly Cloudy
9:55 AM 37.4 °F 33.8 °F 28.4 °F 70% 29.62 in 10.0 mi West 4.6 mph - N/A   Overcast
10:15 AM 39.2 °F 35.9 °F 28.4 °F 65% 29.62 in 10.0 mi WSW 4.6 mph - N/A   Mostly Cloudy
10:35 AM 39.2 °F 35.0 °F 30.2 °F 70% 29.61 in 10.0 mi WSW 5.8 mph - N/A   Mostly Cloudy
10:55 AM 39.2 °F 35.9 °F 30.2 °F 70% 29.61 in 10.0 mi WSW 4.6 mph - N/A   Overcast
11:15 AM 41.0 °F 37.1 °F 30.2 °F 65% 29.61 in 10.0 mi West 5.8 mph - N/A   Overcast
11:35 AM 42.8 °F 38.6 °F 30.2 °F 61% 29.61 in 10.0 mi West 6.9 mph - N/A   Mostly Cloudy
11:55 AM 41.0 °F 38.0 °F 32.0 °F 70% 29.60 in 10.0 mi NW 4.6 mph - N/A   Mostly Cloudy
12:15 PM 39.2 °F 35.9 °F 32.0 °F 75% 29.59 in 10.0 mi North 4.6 mph - N/A   Overcast
12:35 PM 41.0 °F 37.1 °F 32.0 °F 70% 29.59 in 10.0 mi North 5.8 mph - N/A   Mostly Cloudy
12:55 PM 41.0 °F 35.2 °F 32.0 °F 70% 29.58 in 10.0 mi North 9.2 mph - N/A   Scattered Clouds
1:15 PM 42.8 °F 40.1 °F 32.0 °F 66% 29.57 in 10.0 mi North 4.6 mph - N/A   Scattered Clouds
1:35 PM 41.0 °F 38.0 °F 32.0 °F 70% 29.57 in 10.0 mi North 4.6 mph - N/A   Mostly Cloudy
1:55 PM 39.2 °F 34.2 °F 32.0 °F 75% 29.57 in 10.0 mi North 6.9 mph - N/A   Mostly Cloudy
2:15 PM 39.2 °F 35.0 °F 32.0 °F 75% 29.57 in 10.0 mi NNW 5.8 mph - N/A   Overcast
2:35 PM 39.2 °F 33.6 °F 32.0 °F 75% 29.57 in 10.0 mi NNW 8.1 mph - N/A   Overcast
2:55 PM 39.2 °F 35.0 °F 32.0 °F 75% 29.57 in 10.0 mi NNW 5.8 mph - N/A   Overcast
3:15 PM 41.0 °F 37.1 °F 32.0 °F 70% 29.57 in 10.0 mi NNW 5.8 mph - N/A   Overcast
3:55 PM 41.0 °F 35.8 °F 32.0 °F 70% 29.57 in 10.0 mi NNW 8.1 mph - N/A   Overcast
4:15 PM 41.0 °F 37.1 °F 32.0 °F 70% 29.57 in 10.0 mi NNW 5.8 mph - N/A   Overcast
4:35 PM 41.0 °F 39.0 °F 32.0 °F 70% 29.57 in 10.0 mi NW 3.5 mph - N/A   Overcast
4:55 PM 39.2 °F 35.9 °F 33.8 °F 81% 29.58 in 9.0 mi South 4.6 mph - N/A   Overcast
5:15 PM 39.2 °F 35.0 °F 33.8 °F 81% 29.58 in 10.0 mi South 5.8 mph - N/A   Overcast
5:35 PM 39.2 °F - 33.8 °F 81% 29.58 in 10.0 mi Calm Calm - N/A   Overcast
5:55 PM 39.2 °F - 33.8 °F 81% 29.59 in 10.0 mi Calm Calm - N/A   Overcast
6:15 PM 39.2 °F - 33.8 °F 81% 29.59 in 10.0 mi Calm Calm - N/A   Light Drizzle
6:55 PM 37.4 °F - 35.6 °F 93% 29.60 in 10.0 mi Calm Calm - N/A   Mostly Cloudy
7:15 PM 37.4 °F - 33.8 °F 87% 29.60 in 10.0 mi Calm Calm - N/A   Overcast
7:35 PM 37.4 °F 33.8 °F 33.8 °F 87% 29.60 in 10.0 mi West 4.6 mph - N/A   Overcast
7:55 PM 37.4 °F 31.4 °F 33.8 °F 87% 29.61 in 10.0 mi West 8.1 mph - N/A   Overcast
8:15 PM 37.4 °F 31.4 °F 33.8 °F 87% 29.61 in 10.0 mi West 8.1 mph - N/A   Mostly Cloudy
8:35 PM 35.6 °F 31.7 °F 32.0 °F 87% 29.61 in 10.0 mi West 4.6 mph - N/A   Light Drizzle
8:55 PM 35.6 °F 31.7 °F 32.0 °F 87% 29.61 in 10.0 mi West 4.6 mph - N/A Rain Light Rain
9:15 PM 35.6 °F 30.7 °F 33.8 °F 93% 29.61 in 10.0 mi West 5.8 mph - N/A   Overcast
9:35 PM 35.6 °F 29.9 °F 32.0 °F 87% 29.61 in 10.0 mi West 6.9 mph - N/A Rain Light Rain
9:55 PM 33.8 °F 28.6 °F 32.0 °F 93% 29.61 in 10.0 mi West 5.8 mph - N/A Rain Light Rain
10:15 PM 33.8 °F 29.6 °F 32.0 °F 93% 29.60 in 10.0 mi West 4.6 mph - N/A Rain Light Rain
10:55 PM 33.8 °F 29.6 °F 32.0 °F 93% 29.60 in 10.0 mi West 4.6 mph - N/A Rain Light Rain
11:15 PM 33.8 °F 29.6 °F 32.0 °F 93% 29.60 in 8.0 mi West 4.6 mph - N/A   Overcast
11:35 PM 33.8 °F 29.6 °F 32.0 °F 93% 29.60 in 4.0 mi West 4.6 mph - N/A   Overcast
11:55 PM 33.8 °F 30.8 °F 32.0 °F 93% 29.60 in 5.0 mi West 3.5 mph - N/A Snow Light Snow